User: anonymous   Login
Location: Columbia
(38.9520°N, 92.3340°W)
Time: 16:16:21
(UTC-06:00)
Language:

Iridium 15 - Orbit

View from above orbital plane
View from above orbital plane
View from above satellite
View from above satellite

Ground track
Ground track

The orbit data is extracted from the following two-line orbital elements,

1 24869U 97034A   18052.66491457 +.00000021 +00000-0 +39780-6 0  9996
2 24869 086.4157 277.6822 0001701 089.4083 270.7310 14.38614296079535
Epoch (UTC): 21 February 2018 15:57:28
Eccentricity: 0.0001701
inclination: 86.4157°
perigee height: 762 km
apogee height: 764 km
right ascension of ascending node: 277.6822°
argument of perigee: 89.4083°
revolutions per day: 14.38614296
mean anomaly at epoch: 270.7310°
orbit number at epoch: 7953

The dashed part of the orbit path shows where the satellite is in the earth's shadow,  

DLR